Time,TemperatureF,DewpointF,PressureIn,WindDirection,WindDirectionDegrees,WindSpeedMPH,WindSpeedGustMPH,Humidity,HourlyPrecipIn,Conditions,Clouds,dailyrainin,SolarRadiationWatts/m^2,SoftwareType,DateUTC
2013-02-12 00:02:00,72.9,36.9,-100.00,South,188,3.0,12.0,27,0.00,,,0.00,0.0,meteohub,2013-02-12 05:02:00,
2013-02-12 00:07:00,72.9,36.9,-100.00,South,181,4.0,12.0,27,0.00,,,0.00,0.0,meteohub,2013-02-12 05:07:00,
2013-02-12 00:12:00,72.9,36.0,-100.00,South,171,3.0,12.0,26,0.00,,,0.00,0.0,meteohub,2013-02-12 05:12:00,
2013-02-12 00:17:00,72.9,36.9,-100.00,South,173,3.0,10.0,27,0.00,,,0.00,0.0,meteohub,2013-02-12 05:17:00,
2013-02-12 00:27:00,72.7,36.9,-100.00,South,184,2.0,10.0,27,0.00,,,0.00,0.0,meteohub,2013-02-12 05:27:00,
2013-02-12 00:32:00,72.7,36.9,-100.00,South,190,4.0,10.0,27,0.00,,,0.00,0.0,meteohub,2013-02-12 05:32:00,
2013-02-12 00:37:00,72.7,36.9,-100.00,SSW,198,6.0,10.0,27,0.00,,,0.00,0.0,meteohub,2013-02-12 05:37:00,
2013-02-12 00:42:00,72.7,37.8,-100.00,South,173,1.0,10.0,28,0.00,,,0.00,0.0,meteohub,2013-02-12 05:42:00,
2013-02-12 00:47:00,72.5,37.6,-100.00,South,175,3.0,10.0,28,0.00,,,0.00,0.0,meteohub,2013-02-12 05:47:00,
2013-02-12 00:52:00,72.3,37.4,-100.00,SSW,199,4.0,11.0,28,0.00,,,0.00,0.0,meteohub,2013-02-12 05:52:00,
2013-02-12 00:57:00,72.3,37.4,-100.00,South,179,4.0,11.0,28,0.00,,,0.00,0.0,meteohub,2013-02-12 05:57:00,
2013-02-12 01:02:00,72.3,37.4,-100.00,South,182,0.0,11.0,28,0.00,,,0.00,0.0,meteohub,2013-02-12 06:02:00,
2013-02-12 01:12:00,72.7,35.8,-100.00,South,180,2.0,9.0,26,0.00,,,0.00,0.0,meteohub,2013-02-12 06:12:00,
2013-02-12 01:17:00,72.7,35.8,-100.00,SSW,193,6.0,9.0,26,0.00,,,0.00,0.0,meteohub,2013-02-12 06:17:00,
2013-02-12 01:22:00,72.7,34.9,-100.00,South,191,3.0,9.0,25,0.00,,,0.00,0.0,meteohub,2013-02-12 06:22:00,
2013-02-12 01:27:00,72.7,33.8,-100.00,South,187,1.0,9.0,24,0.00,,,0.00,0.0,meteohub,2013-02-12 06:27:00,
2013-02-12 01:32:00,72.7,33.8,-100.00,South,190,0.0,9.0,24,0.00,,,0.00,0.0,meteohub,2013-02-12 06:32:00,
2013-02-12 01:37:00,72.9,34.0,-100.00,South,172,1.0,9.0,24,0.00,,,0.00,0.0,meteohub,2013-02-12 06:37:00,
2013-02-12 01:42:00,72.9,32.9,-100.00,SE,140,0.0,9.0,23,0.00,,,0.00,0.0,meteohub,2013-02-12 06:42:00,
2013-02-12 01:47:00,72.9,32.9,-100.00,SSW,192,4.0,9.0,23,0.00,,,0.00,0.0,meteohub,2013-02-12 06:47:00,
2013-02-12 01:57:00,72.9,32.9,-100.00,South,188,0.0,10.0,23,0.00,,,0.00,0.0,meteohub,2013-02-12 06:57:00,
2013-02-12 02:02:00,72.7,31.6,-100.00,South,186,5.0,10.0,22,0.00,,,0.00,0.0,meteohub,2013-02-12 07:02:00,
2013-02-12 02:07:00,72.7,31.6,-100.00,South,191,6.0,10.0,22,0.00,,,0.00,0.0,meteohub,2013-02-12 07:07:00,
2013-02-12 02:12:00,72.7,31.6,-100.00,SSW,193,3.0,7.0,22,0.00,,,0.00,0.0,meteohub,2013-02-12 07:12:00,
2013-02-12 02:17:00,72.7,31.6,-100.00,South,181,4.0,7.0,22,0.00,,,0.00,0.0,meteohub,2013-02-12 07:17:00,
2013-02-12 02:22:00,72.7,30.6,-100.00,South,190,5.0,7.0,21,0.00,,,0.00,0.0,meteohub,2013-02-12 07:22:00,
2013-02-12 02:27:00,72.7,30.6,-100.00,SSE,165,3.0,7.0,21,0.00,,,0.00,0.0,meteohub,2013-02-12 07:27:00,
2013-02-12 02:32:00,72.7,30.6,-100.00,SSW,194,2.0,7.0,21,0.00,,,0.00,0.0,meteohub,2013-02-12 07:32:00,
2013-02-12 02:37:00,72.7,30.6,-100.00,South,176,1.0,7.0,21,0.00,,,0.00,0.0,meteohub,2013-02-12 07:37:00,
2013-02-12 02:42:00,72.7,30.6,-100.00,South,174,3.0,9.0,21,0.00,,,0.00,0.0,meteohub,2013-02-12 07:42:00,
2013-02-12 02:47:00,72.7,29.3,-100.00,South,185,2.0,9.0,20,0.00,,,0.00,0.0,meteohub,2013-02-12 07:47:00,
2013-02-12 02:52:00,72.9,29.5,-100.00,SSW,203,2.0,9.0,20,0.00,,,0.00,0.0,meteohub,2013-02-12 07:52:00,
2013-02-12 02:57:00,72.9,29.5,-100.00,South,191,3.0,7.0,20,0.00,,,0.00,0.0,meteohub,2013-02-12 07:57:00,
2013-02-12 03:02:00,72.9,29.5,-100.00,South,173,3.0,7.0,20,0.00,,,0.00,0.0,meteohub,2013-02-12 08:02:00,
2013-02-12 03:07:00,72.7,29.3,-100.00,SSW,199,6.0,7.0,20,0.00,,,0.00,0.0,meteohub,2013-02-12 08:07:00,
2013-02-12 03:12:00,72.7,29.3,-100.00,South,187,0.0,9.0,20,0.00,,,0.00,0.0,meteohub,2013-02-12 08:12:00,
2013-02-12 03:17:00,72.7,28.0,-100.00,South,187,3.0,9.0,19,0.00,,,0.00,0.0,meteohub,2013-02-12 08:17:00,
2013-02-12 03:22:00,72.5,27.9,-100.00,South,187,2.0,9.0,19,0.00,,,0.00,0.0,meteohub,2013-02-12 08:22:00,
2013-02-12 03:27:00,72.3,27.7,-100.00,South,188,0.0,9.0,19,0.00,,,0.00,0.0,meteohub,2013-02-12 08:27:00,
2013-02-12 03:32:00,72.3,27.7,-100.00,South,187,0.0,9.0,19,0.00,,,0.00,0.0,meteohub,2013-02-12 08:32:00,
2013-02-12 03:37:00,72.1,27.7,-100.00,South,188,0.0,9.0,19,0.00,,,0.00,0.0,meteohub,2013-02-12 08:37:00,
2013-02-12 03:42:00,72.0,27.5,-100.00,South,188,0.0,6.0,19,0.00,,,0.00,0.0,meteohub,2013-02-12 08:42:00,
2013-02-12 03:47:00,71.8,27.3,-100.00,South,187,0.0,6.0,19,0.00,,,0.00,0.0,meteohub,2013-02-12 08:47:00,
2013-02-12 03:52:00,71.2,28.0,-100.00,South,187,0.0,6.0,20,0.00,,,0.00,0.0,meteohub,2013-02-12 08:52:00,
2013-02-12 03:57:00,71.1,26.8,-100.00,South,188,0.0,0.0,19,0.00,,,0.00,0.0,meteohub,2013-02-12 08:57:00,
2013-02-12 04:02:00,70.7,26.4,-100.00,South,188,0.0,0.0,19,0.00,,,0.00,0.0,meteohub,2013-02-12 09:02:00,
2013-02-12 04:07:00,70.3,26.1,-100.00,South,188,0.0,0.0,19,0.00,,,0.00,0.0,meteohub,2013-02-12 09:07:00,
2013-02-12 04:12:00,70.0,25.9,-100.00,South,187,0.0,0.0,19,0.00,,,0.00,0.0,meteohub,2013-02-12 09:12:00,
2013-02-12 04:17:00,69.4,26.6,-100.00,South,188,0.0,0.0,20,0.00,,,0.00,0.0,meteohub,2013-02-12 09:17:00,
2013-02-12 04:22:00,69.1,26.2,-100.00,South,188,0.0,0.0,20,0.00,,,0.00,0.0,meteohub,2013-02-12 09:22:00,
2013-02-12 04:27:00,68.7,26.1,-100.00,South,187,0.0,0.0,20,0.00,,,0.00,0.0,meteohub,2013-02-12 09:27:00,
2013-02-12 04:32:00,68.7,24.8,-100.00,South,188,0.0,0.0,19,0.00,,,0.00,0.0,meteohub,2013-02-12 09:32:00,
2013-02-12 04:37:00,68.9,25.0,-100.00,South,188,0.0,0.0,19,0.00,,,0.00,0.0,meteohub,2013-02-12 09:37:00,
2013-02-12 04:42:00,68.7,24.8,-100.00,South,188,0.0,0.0,19,0.00,,,0.00,0.0,meteohub,2013-02-12 09:42:00,
2013-02-12 04:47:00,68.5,24.6,-100.00,South,187,0.0,0.0,19,0.00,,,0.00,0.0,meteohub,2013-02-12 09:47:00,
2013-02-12 04:52:00,68.2,25.5,-100.00,South,188,0.0,0.0,20,0.00,,,0.00,0.0,meteohub,2013-02-12 09:52:00,
2013-02-12 04:57:00,67.6,25.2,-100.00,South,188,0.0,0.0,20,0.00,,,0.00,0.0,meteohub,2013-02-12 09:57:00,
2013-02-12 05:07:00,68.2,25.5,-100.00,South,188,0.0,0.0,20,0.00,,,0.00,0.0,meteohub,2013-02-12 10:07:00,
2013-02-12 05:12:00,68.2,25.5,-100.00,South,187,0.0,0.0,20,0.00,,,0.00,0.0,meteohub,2013-02-12 10:12:00,
2013-02-12 05:22:00,68.4,25.7,-100.00,South,188,0.0,1.0,20,0.00,,,0.00,0.0,meteohub,2013-02-12 10:22:00,
2013-02-12 05:27:00,68.4,25.7,-100.00,South,187,0.0,1.0,20,0.00,,,0.00,0.0,meteohub,2013-02-12 10:27:00,
2013-02-12 05:32:00,68.5,25.9,-100.00,South,187,0.0,1.0,20,0.00,,,0.00,0.0,meteohub,2013-02-12 10:32:00,
2013-02-12 05:37:00,68.5,25.9,-100.00,South,188,0.0,1.0,20,0.00,,,0.00,0.0,meteohub,2013-02-12 10:37:00,
2013-02-12 05:42:00,68.2,25.5,-100.00,South,187,0.0,1.0,20,0.00,,,0.00,0.0,meteohub,2013-02-12 10:42:00,
2013-02-12 05:47:00,68.0,25.3,-100.00,South,188,0.0,1.0,20,0.00,,,0.00,0.0,meteohub,2013-02-12 10:47:00,
2013-02-12 05:52:00,68.0,25.3,-100.00,South,188,0.0,1.0,20,0.00,,,0.00,0.0,meteohub,2013-02-12 10:52:00,
2013-02-12 05:57:00,67.6,25.2,-100.00,South,188,0.0,0.0,20,0.00,,,0.00,0.0,meteohub,2013-02-12 10:57:00,
2013-02-12 06:02:00,67.3,24.8,-100.00,South,187,0.0,0.0,20,0.00,,,0.00,0.0,meteohub,2013-02-12 11:02:00,
2013-02-12 06:07:00,67.3,24.8,-100.00,South,188,0.0,0.0,20,0.00,,,0.00,0.0,meteohub,2013-02-12 11:07:00,
2013-02-12 06:17:00,67.6,25.2,-100.00,South,188,0.0,0.0,20,0.00,,,0.00,0.0,meteohub,2013-02-12 11:17:00,
2013-02-12 06:22:00,67.3,24.8,-100.00,South,187,0.0,0.0,20,0.00,,,0.00,0.0,meteohub,2013-02-12 11:22:00,
2013-02-12 06:27:00,66.7,24.4,-100.00,South,188,0.0,0.0,20,0.00,,,0.00,0.0,meteohub,2013-02-12 11:27:00,
2013-02-12 06:32:00,66.0,23.7,-100.00,South,188,0.0,0.0,20,0.00,,,0.00,0.0,meteohub,2013-02-12 11:32:00,
2013-02-12 06:42:00,65.1,24.3,-100.00,South,188,0.0,0.0,21,0.00,,,0.00,0.0,meteohub,2013-02-12 11:42:00,
2013-02-12 06:47:00,64.9,24.1,-100.00,South,188,0.0,0.0,21,0.00,,,0.00,0.0,meteohub,2013-02-12 11:47:00,
2013-02-12 06:52:00,65.7,24.6,-100.00,South,188,0.0,1.0,21,0.00,,,0.00,0.0,meteohub,2013-02-12 11:52:00,
2013-02-12 06:57:00,66.4,25.3,-100.00,South,188,0.0,1.0,21,0.00,,,0.00,0.0,meteohub,2013-02-12 11:57:00,
2013-02-12 07:02:00,66.7,24.4,-100.00,South,187,0.0,1.0,20,0.00,,,0.00,7.0,meteohub,2013-02-12 12:02:00,
2013-02-12 07:07:00,66.7,24.4,-100.00,South,188,0.0,1.0,20,0.00,,,0.00,11.0,meteohub,2013-02-12 12:07:00,
2013-02-12 07:12:00,67.1,24.6,-100.00,South,187,0.0,0.0,20,0.00,,,0.00,16.0,meteohub,2013-02-12 12:12:00,
2013-02-12 07:17:00,67.3,24.8,-100.00,South,187,0.0,0.0,20,0.00,,,0.00,25.0,meteohub,2013-02-12 12:17:00,
2013-02-12 07:22:00,67.6,25.2,-100.00,South,188,0.0,1.0,20,0.00,,,0.00,39.0,meteohub,2013-02-12 12:22:00,
2013-02-12 07:27:00,67.8,25.3,-100.00,South,188,0.0,1.0,20,0.00,,,0.00,51.0,meteohub,2013-02-12 12:27:00,
2013-02-12 07:32:00,68.0,25.3,-100.00,South,188,0.0,1.0,20,0.00,,,0.00,56.0,meteohub,2013-02-12 12:32:00,
2013-02-12 07:37:00,68.2,25.5,-100.00,South,187,1.0,1.0,20,0.00,,,0.00,77.0,meteohub,2013-02-12 12:37:00,
2013-02-12 07:42:00,68.4,25.7,-100.00,South,188,0.0,3.0,20,0.00,,,0.00,69.0,meteohub,2013-02-12 12:42:00,
2013-02-12 07:47:00,68.5,25.9,-100.00,South,188,0.0,3.0,20,0.00,,,0.00,62.0,meteohub,2013-02-12 12:47:00,
2013-02-12 07:52:00,68.9,26.2,-100.00,South,187,1.0,3.0,20,0.00,,,0.00,105.0,meteohub,2013-02-12 12:52:00,
2013-02-12 07:57:00,69.3,26.4,-100.00,South,187,0.0,3.0,20,0.00,,,0.00,151.0,meteohub,2013-02-12 12:57:00,
2013-02-12 08:02:00,69.6,25.5,-100.00,South,188,0.0,3.0,19,0.00,,,0.00,171.0,meteohub,2013-02-12 13:02:00,
2013-02-12 08:07:00,70.2,26.1,-100.00,South,188,0.0,3.0,19,0.00,,,0.00,185.0,meteohub,2013-02-12 13:07:00,
2013-02-12 08:12:00,70.7,26.4,-100.00,South,188,1.0,3.0,19,0.00,,,0.00,213.0,meteohub,2013-02-12 13:12:00,
2013-02-12 08:17:00,71.2,26.8,-100.00,South,188,1.0,4.0,19,0.00,,,0.00,237.0,meteohub,2013-02-12 13:17:00,
2013-02-12 08:22:00,71.8,27.3,-100.00,South,188,2.0,4.0,19,0.00,,,0.00,172.0,meteohub,2013-02-12 13:22:00,
2013-02-12 08:27:00,72.1,27.7,-100.00,South,187,1.0,4.0,19,0.00,,,0.00,283.0,meteohub,2013-02-12 13:27:00,
2013-02-12 08:32:00,72.9,28.2,-100.00,South,188,0.0,4.0,19,0.00,,,0.00,292.0,meteohub,2013-02-12 13:32:00,
2013-02-12 08:37:00,73.6,28.8,-100.00,SW,221,1.0,5.0,19,0.00,,,0.00,309.0,meteohub,2013-02-12 13:37:00,
2013-02-12 08:42:00,73.9,30.4,-100.00,SSW,207,3.0,5.0,20,0.00,,,0.00,323.0,meteohub,2013-02-12 13:42:00,
2013-02-12 08:47:00,74.7,30.9,-100.00,SSW,208,0.0,9.0,20,0.00,,,0.00,345.0,meteohub,2013-02-12 13:47:00,
2013-02-12 08:52:00,74.8,32.4,-100.00,SSW,213,4.0,9.0,21,0.00,,,0.00,364.0,meteohub,2013-02-12 13:52:00,
2013-02-12 08:57:00,75.0,33.6,-100.00,SSW,213,7.0,12.0,22,0.00,,,0.00,381.0,meteohub,2013-02-12 13:57:00,
2013-02-12 09:02:00,75.4,34.0,-100.00,SSW,209,7.0,12.0,22,0.00,,,0.00,396.0,meteohub,2013-02-12 14:02:00,
2013-02-12 09:07:00,75.7,35.2,-100.00,SSW,206,3.0,12.0,23,0.00,,,0.00,413.0,meteohub,2013-02-12 14:07:00,
2013-02-12 09:12:00,76.1,36.7,-100.00,SSW,207,6.0,12.0,24,0.00,,,0.00,429.0,meteohub,2013-02-12 14:12:00,
2013-02-12 09:17:00,76.3,37.9,-100.00,SSW,210,5.0,11.0,25,0.00,,,0.00,452.0,meteohub,2013-02-12 14:17:00,
2013-02-12 09:22:00,76.3,38.8,-100.00,South,188,6.0,11.0,26,0.00,,,0.00,468.0,meteohub,2013-02-12 14:22:00,
2013-02-12 09:27:00,76.5,39.0,-100.00,South,183,8.0,11.0,26,0.00,,,0.00,485.0,meteohub,2013-02-12 14:27:00,
2013-02-12 09:32:00,76.8,40.3,-100.00,SSW,202,3.0,11.0,27,0.00,,,0.00,504.0,meteohub,2013-02-12 14:32:00,
2013-02-12 09:37:00,77.0,41.4,-100.00,SSW,197,2.0,11.0,28,0.00,,,0.00,520.0,meteohub,2013-02-12 14:37:00,
2013-02-12 09:47:00,77.2,43.3,-100.00,SSW,210,3.0,14.0,30,0.00,,,0.00,564.0,meteohub,2013-02-12 14:47:00,
2013-02-12 09:52:00,77.4,44.4,-100.00,SSW,203,2.0,14.0,31,0.00,,,0.00,584.0,meteohub,2013-02-12 14:52:00,
2013-02-12 09:57:00,77.4,44.4,-100.00,SW,215,0.0,13.0,31,0.00,,,0.00,568.0,meteohub,2013-02-12 14:57:00,
2013-02-12 10:02:00,77.4,46.8,-100.00,South,187,4.0,13.0,34,0.00,,,0.00,612.0,meteohub,2013-02-12 15:02:00,
2013-02-12 10:07:00,77.2,45.0,-100.00,South,169,3.0,13.0,32,0.00,,,0.00,139.0,meteohub,2013-02-12 15:07:00,
2013-02-12 10:12:00,77.2,45.9,-100.00,SSW,211,4.0,12.0,33,0.00,,,0.00,128.0,meteohub,2013-02-12 15:12:00,
2013-02-12 10:17:00,76.8,46.4,-100.00,SSW,207,3.0,12.0,34,0.00,,,0.00,158.0,meteohub,2013-02-12 15:17:00,
2013-02-12 10:22:00,76.6,46.2,-100.00,SSW,200,5.0,12.0,34,0.00,,,0.00,162.0,meteohub,2013-02-12 15:22:00,
2013-02-12 10:32:00,77.4,46.0,-100.00,South,190,5.0,10.0,33,0.00,,,0.00,759.0,meteohub,2013-02-12 15:32:00,
2013-02-12 10:37:00,78.1,49.6,-100.00,SSW,198,3.0,10.0,37,0.00,,,0.00,795.0,meteohub,2013-02-12 15:37:00,
2013-02-12 10:42:00,78.6,50.9,-100.00,SSW,209,5.0,10.0,38,0.00,,,0.00,875.0,meteohub,2013-02-12 15:42:00,
2013-02-12 10:47:00,78.8,53.1,-100.00,SSW,200,8.0,12.0,41,0.00,,,0.00,828.0,meteohub,2013-02-12 15:47:00,
2013-02-12 10:52:00,79.5,56.3,-100.00,SSW,197,10.0,12.0,45,0.00,,,0.00,823.0,meteohub,2013-02-12 15:52:00,
2013-02-12 10:57:00,78.6,54.9,-100.00,South,191,3.0,14.0,44,0.00,,,0.00,156.0,meteohub,2013-02-12 15:57:00,
2013-02-12 11:02:00,77.9,53.6,-100.00,SSW,200,3.0,14.0,43,0.00,,,0.00,174.0,meteohub,2013-02-12 16:02:00,
2013-02-12 11:07:00,77.4,49.1,-100.00,South,171,4.0,14.0,37,0.00,,,0.00,202.0,meteohub,2013-02-12 16:07:00,
2013-02-12 11:12:00,77.7,52.9,-100.00,SW,221,5.0,14.0,42,0.00,,,0.00,172.0,meteohub,2013-02-12 16:12:00,
2013-02-12 11:17:00,77.7,49.5,-100.00,SSE,165,7.0,10.0,37,0.00,,,0.00,916.0,meteohub,2013-02-12 16:17:00,
2013-02-12 11:22:00,78.1,51.1,-100.00,SSW,194,7.0,10.0,39,0.00,,,0.00,246.0,meteohub,2013-02-12 16:22:00,
2013-02-12 11:27:00,78.4,51.4,-100.00,SSW,194,6.0,11.0,39,0.00,,,0.00,230.0,meteohub,2013-02-12 16:27:00,
2013-02-12 11:32:00,78.6,52.9,-100.00,SSE,163,4.0,11.0,41,0.00,,,0.00,925.0,meteohub,2013-02-12 16:32:00,
2013-02-12 11:37:00,79.0,52.5,-100.00,South,183,7.0,11.0,40,0.00,,,0.00,983.0,meteohub,2013-02-12 16:37:00,
2013-02-12 11:47:00,79.7,54.0,-100.00,South,190,8.0,14.0,41,0.00,,,0.00,951.0,meteohub,2013-02-12 16:47:00,
2013-02-12 11:52:00,78.6,52.9,-100.00,South,188,7.0,14.0,41,0.00,,,0.00,357.0,meteohub,2013-02-12 16:52:00,
2013-02-12 11:57:00,79.0,53.2,-100.00,SSW,202,13.0,14.0,41,0.00,,,0.00,951.0,meteohub,2013-02-12 16:57:00,
2013-02-12 12:02:00,78.6,51.6,-100.00,SE,133,8.0,14.0,39,0.00,,,0.00,276.0,meteohub,2013-02-12 17:02:00,
2013-02-12 12:07:00,78.1,50.4,-100.00,South,176,7.0,14.0,38,0.00,,,0.00,264.0,meteohub,2013-02-12 17:07:00,
2013-02-12 12:12:00,77.7,48.6,-100.00,SSE,166,2.0,16.0,36,0.00,,,0.00,234.0,meteohub,2013-02-12 17:12:00,
2013-02-12 12:17:00,77.9,48.7,-100.00,SSW,199,7.0,16.0,36,0.00,,,0.00,281.0,meteohub,2013-02-12 17:17:00,
2013-02-12 12:22:00,77.9,49.5,-100.00,South,176,4.0,11.0,37,0.00,,,0.00,269.0,meteohub,2013-02-12 17:22:00,
2013-02-12 12:27:00,78.1,49.6,-100.00,South,185,10.0,11.0,37,0.00,,,0.00,388.0,meteohub,2013-02-12 17:27:00,
2013-02-12 12:32:00,77.7,48.6,-100.00,SE,146,5.0,11.0,36,0.00,,,0.00,234.0,meteohub,2013-02-12 17:32:00,
2013-02-12 12:37:00,77.9,49.5,-100.00,SSW,196,9.0,11.0,37,0.00,,,0.00,272.0,meteohub,2013-02-12 17:37:00,
2013-02-12 12:42:00,78.6,50.2,-100.00,SSW,208,6.0,16.0,37,0.00,,,0.00,974.0,meteohub,2013-02-12 17:42:00,
2013-02-12 12:47:00,79.0,52.0,-100.00,SSW,198,9.0,16.0,39,0.00,,,0.00,974.0,meteohub,2013-02-12 17:47:00,
2013-02-12 12:52:00,78.6,51.6,-100.00,South,183,11.0,14.0,39,0.00,,,0.00,1041.0,meteohub,2013-02-12 17:52:00,
2013-02-12 12:57:00,79.0,52.0,-100.00,SSE,157,10.0,14.0,39,0.00,,,0.00,401.0,meteohub,2013-02-12 17:57:00,
2013-02-12 13:02:00,79.3,54.9,-100.00,SSW,211,9.0,14.0,43,0.00,,,0.00,1011.0,meteohub,2013-02-12 18:02:00,
2013-02-12 13:07:00,80.1,56.1,-100.00,South,173,4.0,14.0,44,0.00,,,0.00,895.0,meteohub,2013-02-12 18:07:00,
2013-02-12 13:12:00,80.1,54.9,-100.00,South,183,4.0,16.0,42,0.00,,,0.00,893.0,meteohub,2013-02-12 18:12:00,
2013-02-12 13:17:00,80.6,57.9,-100.00,SSW,196,9.0,16.0,46,0.00,,,0.00,888.0,meteohub,2013-02-12 18:17:00,
2013-02-12 13:27:00,79.2,52.7,-100.00,SSE,152,9.0,14.0,40,0.00,,,0.00,295.0,meteohub,2013-02-12 18:27:00,
2013-02-12 13:32:00,80.2,57.0,-100.00,SSW,205,10.0,14.0,45,0.00,,,0.00,200.0,meteohub,2013-02-12 18:32:00,
2013-02-12 13:37:00,79.9,56.7,-100.00,South,171,5.0,14.0,45,0.00,,,0.00,223.0,meteohub,2013-02-12 18:37:00,
2013-02-12 13:42:00,79.7,56.5,-100.00,SSW,200,6.0,14.0,45,0.00,,,0.00,248.0,meteohub,2013-02-12 18:42:00,
2013-02-12 13:47:00,79.9,55.9,-100.00,SE,146,7.0,15.0,44,0.00,,,0.00,297.0,meteohub,2013-02-12 18:47:00,
2013-02-12 13:52:00,80.1,56.1,-100.00,South,169,7.0,15.0,44,0.00,,,0.00,912.0,meteohub,2013-02-12 18:52:00,
2013-02-12 13:57:00,80.2,56.3,-100.00,SE,141,10.0,15.0,44,0.00,,,0.00,671.0,meteohub,2013-02-12 18:57:00,
2013-02-12 14:02:00,80.1,56.8,-100.00,South,187,7.0,15.0,45,0.00,,,0.00,211.0,meteohub,2013-02-12 19:02:00,
2013-02-12 14:07:00,79.5,55.8,-100.00,South,173,7.0,15.0,44,0.00,,,0.00,162.0,meteohub,2013-02-12 19:07:00,
2013-02-12 14:12:00,78.6,53.6,-100.00,SSW,192,13.0,14.0,42,0.00,,,0.00,236.0,meteohub,2013-02-12 19:12:00,
2013-02-12 14:17:00,78.6,52.9,-100.00,SSW,196,10.0,14.0,41,0.00,,,0.00,854.0,meteohub,2013-02-12 19:17:00,
2013-02-12 14:22:00,79.2,54.1,-100.00,South,169,9.0,14.0,42,0.00,,,0.00,281.0,meteohub,2013-02-12 19:22:00,
2013-02-12 14:27:00,79.0,55.2,-100.00,SSW,192,11.0,14.0,44,0.00,,,0.00,220.0,meteohub,2013-02-12 19:27:00,
2013-02-12 14:32:00,79.5,56.8,-100.00,South,179,7.0,14.0,46,0.00,,,0.00,807.0,meteohub,2013-02-12 19:32:00,
2013-02-12 14:37:00,80.2,58.1,-100.00,South,176,10.0,15.0,47,0.00,,,0.00,826.0,meteohub,2013-02-12 19:37:00,
2013-02-12 14:42:00,80.4,58.3,-100.00,South,191,5.0,15.0,47,0.00,,,0.00,768.0,meteohub,2013-02-12 19:42:00,
2013-02-12 14:47:00,80.2,57.6,-100.00,SE,141,4.0,16.0,46,0.00,,,0.00,258.0,meteohub,2013-02-12 19:47:00,
2013-02-12 14:52:00,80.2,57.6,-100.00,SSW,201,5.0,16.0,46,0.00,,,0.00,619.0,meteohub,2013-02-12 19:52:00,
2013-02-12 14:57:00,80.1,56.1,-100.00,SE,132,5.0,15.0,44,0.00,,,0.00,659.0,meteohub,2013-02-12 19:57:00,
2013-02-12 15:07:00,78.4,52.7,-100.00,South,184,8.0,15.0,41,0.00,,,0.00,176.0,meteohub,2013-02-12 20:07:00,
2013-02-12 15:12:00,78.1,52.5,-100.00,SSW,209,10.0,19.0,41,0.00,,,0.00,185.0,meteohub,2013-02-12 20:12:00,
2013-02-12 15:22:00,78.3,51.3,-100.00,SSW,210,14.0,16.0,39,0.00,,,0.00,179.0,meteohub,2013-02-12 20:22:00,
2013-02-12 15:27:00,77.9,50.9,-100.00,South,189,9.0,18.0,39,0.00,,,0.00,211.0,meteohub,2013-02-12 20:27:00,
2013-02-12 15:32:00,78.4,51.4,-100.00,South,171,4.0,18.0,39,0.00,,,0.00,599.0,meteohub,2013-02-12 20:32:00,
2013-02-12 15:37:00,78.6,50.9,-100.00,SSW,196,9.0,18.0,38,0.00,,,0.00,534.0,meteohub,2013-02-12 20:37:00,
2013-02-12 15:42:00,78.4,50.7,-100.00,SSW,196,15.0,18.0,38,0.00,,,0.00,464.0,meteohub,2013-02-12 20:42:00,
2013-02-12 15:47:00,78.3,50.5,-100.00,SSW,196,14.0,20.0,38,0.00,,,0.00,155.0,meteohub,2013-02-12 20:47:00,
2013-02-12 15:52:00,78.1,50.4,-100.00,SE,132,12.0,20.0,38,0.00,,,0.00,429.0,meteohub,2013-02-12 20:52:00,
2013-02-12 15:57:00,78.3,49.8,-100.00,SSE,165,5.0,20.0,37,0.00,,,0.00,404.0,meteohub,2013-02-12 20:57:00,
2013-02-12 16:07:00,78.6,51.6,-100.00,SSW,193,12.0,20.0,39,0.00,,,0.00,369.0,meteohub,2013-02-12 21:07:00,
2013-02-12 16:12:00,78.1,51.1,-100.00,SSW,204,13.0,17.0,39,0.00,,,0.00,332.0,meteohub,2013-02-12 21:12:00,
2013-02-12 16:17:00,77.9,48.7,-100.00,ESE,123,6.0,23.0,36,0.00,,,0.00,329.0,meteohub,2013-02-12 21:17:00,
2013-02-12 16:22:00,78.6,48.7,-100.00,SSE,166,9.0,23.0,35,0.00,,,0.00,325.0,meteohub,2013-02-12 21:22:00,
2013-02-12 16:32:00,78.3,46.8,-100.00,SSW,198,9.0,23.0,33,0.00,,,0.00,274.0,meteohub,2013-02-12 21:32:00,
2013-02-12 16:37:00,78.6,46.2,-100.00,SSW,207,11.0,20.0,32,0.00,,,0.00,251.0,meteohub,2013-02-12 21:37:00,
2013-02-12 16:42:00,78.3,47.7,-100.00,South,185,6.0,20.0,34,0.00,,,0.00,241.0,meteohub,2013-02-12 21:42:00,
2013-02-12 16:47:00,78.1,45.9,-100.00,SSE,160,11.0,23.0,32,0.00,,,0.00,225.0,meteohub,2013-02-12 21:47:00,
2013-02-12 16:52:00,77.7,45.5,-100.00,SSE,165,16.0,23.0,32,0.00,,,0.00,206.0,meteohub,2013-02-12 21:52:00,
2013-02-12 16:57:00,77.7,45.5,-100.00,SSW,211,8.0,23.0,32,0.00,,,0.00,186.0,meteohub,2013-02-12 21:57:00,
2013-02-12 17:02:00,77.7,44.6,-100.00,South,188,7.0,23.0,31,0.00,,,0.00,165.0,meteohub,2013-02-12 22:02:00,
2013-02-12 17:07:00,78.1,43.2,-100.00,South,181,9.0,23.0,29,0.00,,,0.00,139.0,meteohub,2013-02-12 22:07:00,
2013-02-12 17:12:00,78.3,43.3,-100.00,South,185,6.0,21.0,29,0.00,,,0.00,65.0,meteohub,2013-02-12 22:12:00,
2013-02-12 17:17:00,77.7,43.0,-100.00,South,183,12.0,17.0,29,0.00,,,0.00,56.0,meteohub,2013-02-12 22:17:00,
2013-02-12 17:22:00,77.7,41.0,-100.00,South,169,9.0,17.0,27,0.00,,,0.00,83.0,meteohub,2013-02-12 22:22:00,
2013-02-12 17:27:00,77.9,39.2,-100.00,SW,223,9.0,17.0,25,0.00,,,0.00,70.0,meteohub,2013-02-12 22:27:00,
2013-02-12 17:32:00,77.7,39.0,-100.00,SSW,198,11.0,17.0,25,0.00,,,0.00,56.0,meteohub,2013-02-12 22:32:00,
2013-02-12 17:37:00,77.7,38.1,-100.00,South,188,7.0,18.0,24,0.00,,,0.00,42.0,meteohub,2013-02-12 22:37:00,
2013-02-12 17:42:00,77.7,35.8,-100.00,SSW,202,12.0,18.0,22,0.00,,,0.00,33.0,meteohub,2013-02-12 22:42:00,
2013-02-12 17:47:00,77.5,35.8,-100.00,South,188,4.0,18.0,22,0.00,,,0.00,25.0,meteohub,2013-02-12 22:47:00,
2013-02-12 17:52:00,77.4,35.6,-100.00,South,171,14.0,18.0,22,0.00,,,0.00,19.0,meteohub,2013-02-12 22:52:00,
2013-02-12 17:58:00,77.4,34.3,-100.00,SSW,206,6.0,16.0,21,0.00,,,0.00,16.0,meteohub,2013-02-12 22:58:00,
2013-02-12 18:07:00,77.4,34.3,-100.00,SW,214,8.0,16.0,21,0.00,,,0.00,7.0,meteohub,2013-02-12 23:07:00,
2013-02-12 18:12:00,77.2,33.1,-100.00,SSW,196,5.0,19.0,20,0.00,,,0.00,0.0,meteohub,2013-02-12 23:12:00,
2013-02-12 18:17:00,77.0,32.9,-100.00,SSW,195,12.0,19.0,20,0.00,,,0.00,0.0,meteohub,2013-02-12 23:17:00,
2013-02-12 18:22:00,76.8,31.5,-100.00,SSW,193,10.0,19.0,19,0.00,,,0.00,0.0,meteohub,2013-02-12 23:22:00,
2013-02-12 18:27:00,76.8,31.5,-100.00,South,190,5.0,19.0,19,0.00,,,0.00,0.0,meteohub,2013-02-12 23:27:00,
2013-02-12 18:32:00,76.8,31.5,-100.00,SSW,199,9.0,19.0,19,0.00,,,0.00,0.0,meteohub,2013-02-12 23:32:00,
2013-02-12 18:37:00,76.8,31.5,-100.00,SSW,200,7.0,19.0,19,0.00,,,0.00,0.0,meteohub,2013-02-12 23:37:00,
2013-02-12 18:42:00,76.6,31.3,-100.00,SSW,192,5.0,16.0,19,0.00,,,0.00,0.0,meteohub,2013-02-12 23:42:00,
2013-02-12 18:47:00,76.8,31.5,-100.00,SSE,156,10.0,16.0,19,0.00,,,0.00,0.0,meteohub,2013-02-12 23:47:00,
2013-02-12 18:52:00,77.0,31.6,-100.00,SSW,196,12.0,16.0,19,0.00,,,0.00,0.0,meteohub,2013-02-12 23:52:00,
2013-02-12 18:57:00,76.8,31.5,-100.00,SW,226,12.0,23.0,19,0.00,,,0.00,0.0,meteohub,2013-02-12 23:57:00,
2013-02-12 19:02:00,76.8,31.5,-100.00,SSW,194,10.0,23.0,19,0.00,,,0.00,0.0,meteohub,2013-02-13 00:02:00,
2013-02-12 19:12:00,76.6,32.5,-100.00,SSW,198,7.0,18.0,20,0.00,,,0.00,0.0,meteohub,2013-02-13 00:12:00,
2013-02-12 19:17:00,76.5,32.4,-100.00,SSW,202,10.0,18.0,20,0.00,,,0.00,0.0,meteohub,2013-02-13 00:17:00,
2013-02-12 19:22:00,76.5,31.1,-100.00,SSW,205,12.0,18.0,19,0.00,,,0.00,0.0,meteohub,2013-02-13 00:22:00,
2013-02-12 19:27:00,76.5,32.4,-100.00,South,177,8.0,18.0,20,0.00,,,0.00,0.0,meteohub,2013-02-13 00:27:00,
2013-02-12 19:32:00,76.5,32.4,-100.00,SSW,192,7.0,19.0,20,0.00,,,0.00,0.0,meteohub,2013-02-13 00:32:00,
2013-02-12 19:42:00,76.3,32.2,-100.00,South,180,6.0,19.0,20,0.00,,,0.00,0.0,meteohub,2013-02-13 00:42:00,
2013-02-12 19:47:00,76.3,32.2,-100.00,South,177,12.0,19.0,20,0.00,,,0.00,0.0,meteohub,2013-02-13 00:47:00,
2013-02-12 19:52:00,76.3,32.2,-100.00,South,176,7.0,19.0,20,0.00,,,0.00,0.0,meteohub,2013-02-13 00:52:00,
2013-02-12 19:57:00,76.3,32.2,-100.00,SSW,202,9.0,19.0,20,0.00,,,0.00,0.0,meteohub,2013-02-13 00:57:00,
2013-02-12 20:02:00,76.5,32.4,-100.00,SSW,206,3.0,16.0,20,0.00,,,0.00,0.0,meteohub,2013-02-13 01:02:00,
2013-02-12 20:07:00,76.5,32.4,-100.00,SSW,210,8.0,16.0,20,0.00,,,0.00,0.0,meteohub,2013-02-13 01:07:00,
2013-02-12 20:12:00,76.5,31.1,-100.00,SSW,201,6.0,17.0,19,0.00,,,0.00,0.0,meteohub,2013-02-13 01:12:00,
2013-02-12 20:17:00,76.5,31.1,-100.00,SSW,196,4.0,17.0,19,0.00,,,0.00,0.0,meteohub,2013-02-13 01:17:00,
2013-02-12 20:22:00,76.3,30.9,-100.00,SSW,194,4.0,14.0,19,0.00,,,0.00,0.0,meteohub,2013-02-13 01:22:00,
2013-02-12 20:27:00,76.3,30.9,-100.00,SW,217,6.0,14.0,19,0.00,,,0.00,0.0,meteohub,2013-02-13 01:27:00,
2013-02-12 20:32:00,76.3,32.2,-100.00,SSW,206,9.0,13.0,20,0.00,,,0.00,0.0,meteohub,2013-02-13 01:32:00,
2013-02-12 20:37:00,76.3,32.2,-100.00,SSW,201,5.0,13.0,20,0.00,,,0.00,0.0,meteohub,2013-02-13 01:37:00,
2013-02-12 20:42:00,76.3,32.2,-100.00,South,182,5.0,12.0,20,0.00,,,0.00,0.0,meteohub,2013-02-13 01:42:00,
2013-02-12 20:47:00,76.3,32.2,-100.00,SSW,192,5.0,12.0,20,0.00,,,0.00,0.0,meteohub,2013-02-13 01:47:00,
2013-02-12 20:52:00,76.3,33.4,-100.00,SSW,192,10.0,13.0,21,0.00,,,0.00,0.0,meteohub,2013-02-13 01:52:00,
2013-02-12 20:57:00,76.3,32.2,-100.00,SSW,207,2.0,13.0,20,0.00,,,0.00,0.0,meteohub,2013-02-13 01:57:00,
2013-02-12 21:02:00,76.3,33.4,-100.00,SW,226,5.0,13.0,21,0.00,,,0.00,0.0,meteohub,2013-02-13 02:02:00,
2013-02-12 21:07:00,76.3,33.4,-100.00,SW,222,4.0,13.0,21,0.00,,,0.00,0.0,meteohub,2013-02-13 02:07:00,
2013-02-12 21:12:00,76.3,33.4,-100.00,SSW,199,6.0,14.0,21,0.00,,,0.00,0.0,meteohub,2013-02-13 02:12:00,
2013-02-12 21:17:00,76.3,33.4,-100.00,SSW,200,7.0,14.0,21,0.00,,,0.00,0.0,meteohub,2013-02-13 02:17:00,
2013-02-12 21:22:00,76.1,33.3,-100.00,SSW,199,7.0,14.0,21,0.00,,,0.00,0.0,meteohub,2013-02-13 02:22:00,
2013-02-12 21:27:00,75.9,33.3,-100.00,SSW,200,4.0,14.0,21,0.00,,,0.00,0.0,meteohub,2013-02-13 02:27:00,
2013-02-12 21:32:00,75.9,33.3,-100.00,SSW,199,5.0,12.0,21,0.00,,,0.00,0.0,meteohub,2013-02-13 02:32:00,
2013-02-12 21:37:00,75.9,33.3,-100.00,SSW,202,5.0,12.0,21,0.00,,,0.00,0.0,meteohub,2013-02-13 02:37:00,
2013-02-12 21:42:00,75.7,33.1,-100.00,SSW,200,10.0,12.0,21,0.00,,,0.00,0.0,meteohub,2013-02-13 02:42:00,
2013-02-12 21:47:00,75.7,33.1,-100.00,SSW,207,5.0,12.0,21,0.00,,,0.00,0.0,meteohub,2013-02-13 02:47:00,
2013-02-12 21:52:00,75.7,31.8,-100.00,SSW,209,4.0,12.0,20,0.00,,,0.00,0.0,meteohub,2013-02-13 02:52:00,
2013-02-12 21:57:00,75.6,31.6,-100.00,SSW,194,11.0,12.0,20,0.00,,,0.00,0.0,meteohub,2013-02-13 02:57:00,
2013-02-12 22:02:00,75.6,31.6,-100.00,SSW,200,7.0,10.0,20,0.00,,,0.00,0.0,meteohub,2013-02-13 03:02:00,
2013-02-12 22:07:00,75.4,30.2,-100.00,SSW,207,5.0,10.0,19,0.00,,,0.00,0.0,meteohub,2013-02-13 03:07:00,
2013-02-12 22:12:00,75.4,30.2,-100.00,SSW,212,5.0,13.0,19,0.00,,,0.00,0.0,meteohub,2013-02-13 03:12:00,
2013-02-12 22:17:00,75.4,30.2,-100.00,SSW,202,2.0,13.0,19,0.00,,,0.00,0.0,meteohub,2013-02-13 03:17:00,
2013-02-12 22:22:00,75.0,30.0,-100.00,South,182,5.0,13.0,19,0.00,,,0.00,0.0,meteohub,2013-02-13 03:22:00,
2013-02-12 22:27:00,74.8,29.8,-100.00,SSW,204,6.0,13.0,19,0.00,,,0.00,0.0,meteohub,2013-02-13 03:27:00,
2013-02-12 22:32:00,74.8,29.8,-100.00,SSW,195,3.0,10.0,19,0.00,,,0.00,0.0,meteohub,2013-02-13 03:32:00,
2013-02-12 22:37:00,74.7,29.7,-100.00,South,191,5.0,10.0,19,0.00,,,0.00,0.0,meteohub,2013-02-13 03:37:00,
2013-02-12 22:42:00,74.5,29.5,-100.00,SSW,203,6.0,9.0,19,0.00,,,0.00,0.0,meteohub,2013-02-13 03:42:00,
2013-02-12 22:47:00,74.5,28.2,-100.00,SW,219,3.0,9.0,18,0.00,,,0.00,0.0,meteohub,2013-02-13 03:47:00,
2013-02-12 22:57:00,74.1,27.9,-100.00,SSW,200,5.0,10.0,18,0.00,,,0.00,0.0,meteohub,2013-02-13 03:57:00,
2013-02-12 23:02:00,74.1,27.9,-100.00,SW,215,3.0,10.0,18,0.00,,,0.00,0.0,meteohub,2013-02-13 04:02:00,
2013-02-12 23:07:00,74.1,27.9,-100.00,SSW,198,4.0,10.0,18,0.00,,,0.00,0.0,meteohub,2013-02-13 04:07:00,
2013-02-12 23:17:00,73.9,27.7,-100.00,South,186,3.0,10.0,18,0.00,,,0.00,0.0,meteohub,2013-02-13 04:17:00,
2013-02-12 23:22:00,73.8,27.7,-100.00,SSW,197,0.0,10.0,18,0.00,,,0.00,0.0,meteohub,2013-02-13 04:22:00,
2013-02-12 23:27:00,73.9,27.7,-100.00,SSW,213,5.0,10.0,18,0.00,,,0.00,0.0,meteohub,2013-02-13 04:27:00,
2013-02-12 23:32:00,73.9,27.7,-100.00,SSW,202,4.0,10.0,18,0.00,,,0.00,0.0,meteohub,2013-02-13 04:32:00,
2013-02-12 23:37:00,73.8,27.7,-100.00,SSW,195,4.0,10.0,18,0.00,,,0.00,0.0,meteohub,2013-02-13 04:37:00,
2013-02-12 23:47:00,73.6,27.5,-100.00,SSW,213,0.0,8.0,18,0.00,,,0.00,0.0,meteohub,2013-02-13 04:47:00,
2013-02-12 23:52:00,73.2,27.1,-100.00,SSW,207,4.0,8.0,18,0.00,,,0.00,0.0,meteohub,2013-02-13 04:52:00,
2013-02-12 23:57:00,73.2,27.1,-100.00,SW,215,6.0,7.0,18,0.00,,,0.00,0.0,meteohub,2013-02-13 04:57:00,